User: anonymous   Login
Location: Unspecified
(0.0000°N, 0.0000°E)
Time: 05:31:24
(UTC+00:00)
Language:

OBJECT E - Orbit

View from above orbital plane
View from above orbital plane
View from above satellite
View from above satellite

Ground track
Ground track

The orbit data is extracted from the following two-line orbital elements,

1 41845U 16066E   17177.86001940 +.00000094 +00000-0 +25489-4 0  9997
2 41845 098.7752 193.7240 0365935 219.4065 137.9977 14.37759066032888
Epoch (UTC): 26 June 2017 20:38:25
Eccentricity: 0.0365935
inclination: 98.7752°
perigee height: 504 km
apogee height: 1027 km
right ascension of ascending node: 193.7240°
argument of perigee: 219.4065°
revolutions per day: 14.37759066
mean anomaly at epoch: 137.9977°
orbit number at epoch: 3288

The dashed part of the orbit path shows where the satellite is in the earth's shadow,  

DLR